Year,Month,Day,Hour,Minute,Value (Times are PST for temperature in C)
2015,02,18,00,00,5.10
2015,02,18,00,01,5.10
2015,02,18,00,02,5.00
2015,02,18,00,03,4.90
2015,02,18,00,04,4.80
2015,02,18,00,05,4.80
2015,02,18,00,06,4.80
2015,02,18,00,07,4.70
2015,02,18,00,08,4.70
2015,02,18,00,09,4.70
2015,02,18,00,10,4.70
2015,02,18,00,11,4.70
2015,02,18,00,12,4.70
2015,02,18,00,13,4.70
2015,02,18,00,14,4.80
2015,02,18,00,15,4.80
2015,02,18,00,16,4.80
2015,02,18,00,17,4.90
2015,02,18,00,18,4.90
2015,02,18,00,19,4.90
2015,02,18,00,20,5.00
2015,02,18,00,21,5.10
2015,02,18,00,22,5.30
2015,02,18,00,23,5.20
2015,02,18,00,24,5.10
2015,02,18,00,25,5.00
2015,02,18,00,26,4.90
2015,02,18,00,27,4.80
2015,02,18,00,28,4.70
2015,02,18,00,29,4.70
2015,02,18,00,30,4.70
2015,02,18,00,31,4.70
2015,02,18,00,32,4.80
2015,02,18,00,33,4.80
2015,02,18,00,34,4.80
2015,02,18,00,35,4.80
2015,02,18,00,36,4.80
2015,02,18,00,37,4.70
2015,02,18,00,38,4.70
2015,02,18,00,39,4.60
2015,02,18,00,40,4.60
2015,02,18,00,41,4.40
2015,02,18,00,42,4.30
2015,02,18,00,43,4.20
2015,02,18,00,44,4.20
2015,02,18,00,45,4.30
2015,02,18,00,46,4.30
2015,02,18,00,47,4.40
2015,02,18,00,48,4.40
2015,02,18,00,49,4.30
2015,02,18,00,50,4.30
2015,02,18,00,51,4.30
2015,02,18,00,52,4.30
2015,02,18,00,53,4.30
2015,02,18,00,54,4.40
2015,02,18,00,55,4.60
2015,02,18,00,56,4.80
2015,02,18,00,57,5.00
2015,02,18,00,58,5.00
2015,02,18,00,59,5.00
2015,02,18,01,00,5.00
2015,02,18,01,01,5.10
2015,02,18,01,02,5.00
2015,02,18,01,03,5.00
2015,02,18,01,04,4.90
2015,02,18,01,05,4.80
2015,02,18,01,06,4.70
2015,02,18,01,07,4.70
2015,02,18,01,08,4.60
2015,02,18,01,09,4.60
2015,02,18,01,10,4.60
2015,02,18,01,11,4.60
2015,02,18,01,12,4.50
2015,02,18,01,13,4.50
2015,02,18,01,14,4.40
2015,02,18,01,15,4.30
2015,02,18,01,16,4.30
2015,02,18,01,17,4.30
2015,02,18,01,18,4.20
2015,02,18,01,19,4.20
2015,02,18,01,20,4.20
2015,02,18,01,21,4.20
2015,02,18,01,22,4.20
2015,02,18,01,23,4.30
2015,02,18,01,24,4.30
2015,02,18,01,25,4.30
2015,02,18,01,26,4.30
2015,02,18,01,27,4.30
2015,02,18,01,28,4.30
2015,02,18,01,29,4.30
2015,02,18,01,30,4.30
2015,02,18,01,31,4.40
2015,02,18,01,32,4.40
2015,02,18,01,33,4.40
2015,02,18,01,34,4.40
2015,02,18,01,35,4.40
2015,02,18,01,36,4.50
2015,02,18,01,37,4.50
2015,02,18,01,38,4.60
2015,02,18,01,39,4.60
2015,02,18,01,40,4.50
2015,02,18,01,41,4.50
2015,02,18,01,42,4.60
2015,02,18,01,43,4.60
2015,02,18,01,44,4.60
2015,02,18,01,45,4.60
2015,02,18,01,46,4.60
2015,02,18,01,47,4.70
2015,02,18,01,48,4.70
2015,02,18,01,49,4.70
2015,02,18,01,50,4.70
2015,02,18,01,51,4.70
2015,02,18,01,52,4.70
2015,02,18,01,53,4.70
2015,02,18,01,54,4.60
2015,02,18,01,55,4.50
2015,02,18,01,56,4.40
2015,02,18,01,57,4.30
2015,02,18,01,58,4.20
2015,02,18,01,59,4.20
2015,02,18,02,00,4.10
2015,02,18,02,01,4.10
2015,02,18,02,02,4.10
2015,02,18,02,03,4.10
2015,02,18,02,04,4.10
2015,02,18,02,05,4.10
2015,02,18,02,06,4.10
2015,02,18,02,07,4.10
2015,02,18,02,08,4.10
2015,02,18,02,09,4.10
2015,02,18,02,10,4.10
2015,02,18,02,11,4.10
2015,02,18,02,12,4.10
2015,02,18,02,13,4.00
2015,02,18,02,14,4.00
2015,02,18,02,15,4.00
2015,02,18,02,16,4.00
2015,02,18,02,17,4.00
2015,02,18,02,18,4.10
2015,02,18,02,19,4.00
2015,02,18,02,20,4.00
2015,02,18,02,21,4.00
2015,02,18,02,22,4.00
2015,02,18,02,23,4.00
2015,02,18,02,24,3.90
2015,02,18,02,25,3.90
2015,02,18,02,26,3.90
2015,02,18,02,27,3.90
2015,02,18,02,28,3.90
2015,02,18,02,29,4.00
2015,02,18,02,30,4.10
2015,02,18,02,31,4.10
2015,02,18,02,32,4.20
2015,02,18,02,33,4.20
2015,02,18,02,34,4.20
2015,02,18,02,35,4.20
2015,02,18,02,36,4.10
2015,02,18,02,37,4.00
2015,02,18,02,38,4.00
2015,02,18,02,39,3.90
2015,02,18,02,40,3.90
2015,02,18,02,41,3.80
2015,02,18,02,42,3.90
2015,02,18,02,43,3.90
2015,02,18,02,44,3.90
2015,02,18,02,45,3.90
2015,02,18,02,46,3.90
2015,02,18,02,47,3.90
2015,02,18,02,48,3.90
2015,02,18,02,49,4.00
2015,02,18,02,50,4.00
2015,02,18,02,51,4.10
2015,02,18,02,52,4.20
2015,02,18,02,53,4.30
2015,02,18,02,54,4.30
2015,02,18,02,55,4.40
2015,02,18,02,56,4.50
2015,02,18,02,57,4.60
2015,02,18,02,58,4.60
2015,02,18,02,59,4.60
2015,02,18,03,00,4.60
2015,02,18,03,01,4.50
2015,02,18,03,02,4.40
2015,02,18,03,03,4.30
2015,02,18,03,04,4.30
2015,02,18,03,05,4.20
2015,02,18,03,06,4.10
2015,02,18,03,07,4.10
2015,02,18,03,08,4.00
2015,02,18,03,09,3.90
2015,02,18,03,10,3.90
2015,02,18,03,11,3.90
2015,02,18,03,12,3.80
2015,02,18,03,13,3.80
2015,02,18,03,14,3.80
2015,02,18,03,15,3.80
2015,02,18,03,16,3.80
2015,02,18,03,17,3.80
2015,02,18,03,18,3.80
2015,02,18,03,19,3.80
2015,02,18,03,20,3.80
2015,02,18,03,21,3.80
2015,02,18,03,22,3.80
2015,02,18,03,23,3.80
2015,02,18,03,24,3.80
2015,02,18,03,25,3.80
2015,02,18,03,26,3.80
2015,02,18,03,27,3.80
2015,02,18,03,28,3.70
2015,02,18,03,29,3.70
2015,02,18,03,30,3.70
2015,02,18,03,31,3.80
2015,02,18,03,32,3.80
2015,02,18,03,33,3.80
2015,02,18,03,34,3.90
2015,02,18,03,35,3.90
2015,02,18,03,36,4.00
2015,02,18,03,37,4.00
2015,02,18,03,38,4.10
2015,02,18,03,39,4.10
2015,02,18,03,40,4.10
2015,02,18,03,41,4.20
2015,02,18,03,42,4.20
2015,02,18,03,43,4.20
2015,02,18,03,44,4.10
2015,02,18,03,45,4.10
2015,02,18,03,46,4.00
2015,02,18,03,47,3.90
2015,02,18,03,48,3.90
2015,02,18,03,49,3.90
2015,02,18,03,50,3.90
2015,02,18,03,51,3.90
2015,02,18,03,52,4.00
2015,02,18,03,53,3.90
2015,02,18,03,54,3.90
2015,02,18,03,55,3.90
2015,02,18,03,56,4.00
2015,02,18,03,57,4.00
2015,02,18,03,58,4.00
2015,02,18,03,59,3.90
2015,02,18,04,00,3.90
2015,02,18,04,01,4.00
2015,02,18,04,02,4.00
2015,02,18,04,03,4.10
2015,02,18,04,04,4.10
2015,02,18,04,05,4.30
2015,02,18,04,06,4.30
2015,02,18,04,07,4.30
2015,02,18,04,08,4.30
2015,02,18,04,09,4.30
2015,02,18,04,10,4.30
2015,02,18,04,11,4.30
2015,02,18,04,12,4.40
2015,02,18,04,13,4.40
2015,02,18,04,14,4.50
2015,02,18,04,15,4.40
2015,02,18,04,16,4.40
2015,02,18,04,17,4.40
2015,02,18,04,18,4.40
2015,02,18,04,19,4.40
2015,02,18,04,20,4.40
2015,02,18,04,21,4.40
2015,02,18,04,22,4.30
2015,02,18,04,23,4.20
2015,02,18,04,24,4.20
2015,02,18,04,25,4.20
2015,02,18,04,26,4.10
2015,02,18,04,27,4.10
2015,02,18,04,28,4.10
2015,02,18,04,29,4.10
2015,02,18,04,30,4.00
2015,02,18,04,31,3.90
2015,02,18,04,32,3.90
2015,02,18,04,33,3.80
2015,02,18,04,34,3.80
2015,02,18,04,35,3.80
2015,02,18,04,36,3.70
2015,02,18,04,37,3.70
2015,02,18,04,38,3.70
2015,02,18,04,39,3.80
2015,02,18,04,40,3.90
2015,02,18,04,41,4.00
2015,02,18,04,42,4.00
2015,02,18,04,43,3.90
2015,02,18,04,44,3.90
2015,02,18,04,45,3.80
2015,02,18,04,46,3.80
2015,02,18,04,47,3.80
2015,02,18,04,48,3.80
2015,02,18,04,49,3.80
2015,02,18,04,50,3.80
2015,02,18,04,51,3.80
2015,02,18,04,52,3.80
2015,02,18,04,53,3.80
2015,02,18,04,54,3.70
2015,02,18,04,55,3.70
2015,02,18,04,56,3.60
2015,02,18,04,57,3.60
2015,02,18,04,58,3.60
2015,02,18,04,59,3.60
2015,02,18,05,00,3.60
2015,02,18,05,01,3.70
2015,02,18,05,02,3.70
2015,02,18,05,03,3.80
2015,02,18,05,04,3.80
2015,02,18,05,05,3.90
2015,02,18,05,06,3.90
2015,02,18,05,07,3.90
2015,02,18,05,08,3.90
2015,02,18,05,09,3.80
2015,02,18,05,10,3.80
2015,02,18,05,11,3.80
2015,02,18,05,12,3.80
2015,02,18,05,13,3.90
2015,02,18,05,14,3.90
2015,02,18,05,15,3.90
2015,02,18,05,16,3.90
2015,02,18,05,17,3.90
2015,02,18,05,18,3.90
2015,02,18,05,19,3.90
2015,02,18,05,20,3.90
2015,02,18,05,21,3.90
2015,02,18,05,22,3.90
2015,02,18,05,23,4.00
2015,02,18,05,24,4.00
2015,02,18,05,25,4.00
2015,02,18,05,26,4.00
2015,02,18,05,27,3.90
2015,02,18,05,28,3.80
2015,02,18,05,29,3.80
2015,02,18,05,30,3.70
2015,02,18,05,31,3.60
2015,02,18,05,32,3.60
2015,02,18,05,33,3.50
2015,02,18,05,34,3.50
2015,02,18,05,35,3.40
2015,02,18,05,36,3.40
2015,02,18,05,37,3.40
2015,02,18,05,38,3.40
2015,02,18,05,39,3.40
2015,02,18,05,40,3.40
2015,02,18,05,41,3.50
2015,02,18,05,42,3.50
2015,02,18,05,43,3.50
2015,02,18,05,44,3.60
2015,02,18,05,45,3.60
2015,02,18,05,46,3.60
2015,02,18,05,47,3.60
2015,02,18,05,48,3.60
2015,02,18,05,49,3.70
2015,02,18,05,50,3.70
2015,02,18,05,51,3.70
2015,02,18,05,52,3.70
2015,02,18,05,53,3.70
2015,02,18,05,54,3.70
2015,02,18,05,55,3.70
2015,02,18,05,56,3.80
2015,02,18,05,57,3.80
2015,02,18,05,58,3.80
2015,02,18,05,59,3.80
2015,02,18,06,00,3.80
2015,02,18,06,01,3.80
2015,02,18,06,02,3.80
2015,02,18,06,03,3.80
2015,02,18,06,04,3.70
2015,02,18,06,05,3.70
2015,02,18,06,06,3.70
2015,02,18,06,07,3.70
2015,02,18,06,08,3.70
2015,02,18,06,09,3.70
2015,02,18,06,10,3.70
2015,02,18,06,11,3.70
2015,02,18,06,12,3.70
2015,02,18,06,13,3.70
2015,02,18,06,14,3.70
2015,02,18,06,15,3.60
2015,02,18,06,16,3.60
2015,02,18,06,17,3.50
2015,02,18,06,18,3.50
2015,02,18,06,19,3.40
2015,02,18,06,20,3.50
2015,02,18,06,21,3.50
2015,02,18,06,22,3.60
2015,02,18,06,23,3.80
2015,02,18,06,24,3.90
2015,02,18,06,25,4.00
2015,02,18,06,26,4.10
2015,02,18,06,27,4.10
2015,02,18,06,28,4.20
2015,02,18,06,29,4.20
2015,02,18,06,30,4.30
2015,02,18,06,31,4.30
2015,02,18,06,32,4.30
2015,02,18,06,33,4.20
2015,02,18,06,34,4.20
2015,02,18,06,35,4.30
2015,02,18,06,36,4.30
2015,02,18,06,37,4.20
2015,02,18,06,38,4.20
2015,02,18,06,39,4.20
2015,02,18,06,40,4.20
2015,02,18,06,41,4.20
2015,02,18,06,42,4.20
2015,02,18,06,43,4.20
2015,02,18,06,44,4.20
2015,02,18,06,45,4.20
2015,02,18,06,46,4.30
2015,02,18,06,47,4.40
2015,02,18,06,48,4.60
2015,02,18,06,49,4.70
2015,02,18,06,50,4.60
2015,02,18,06,51,4.50
2015,02,18,06,52,4.50
2015,02,18,06,53,4.40
2015,02,18,06,54,4.40
2015,02,18,06,55,4.50
2015,02,18,06,56,4.60
2015,02,18,06,57,4.80
2015,02,18,06,58,4.90
2015,02,18,06,59,5.10
2015,02,18,07,00,5.30
2015,02,18,07,01,5.40
2015,02,18,07,02,5.50
2015,02,18,07,03,5.40
2015,02,18,07,04,5.40
2015,02,18,07,05,5.30
2015,02,18,07,06,5.30
2015,02,18,07,07,5.40
2015,02,18,07,08,5.30
2015,02,18,07,09,5.20
2015,02,18,07,10,5.20
2015,02,18,07,11,5.20
2015,02,18,07,12,5.10
2015,02,18,07,13,5.00
2015,02,18,07,14,5.00
2015,02,18,07,15,4.90
2015,02,18,07,16,4.90
2015,02,18,07,17,4.90
2015,02,18,07,18,4.90
2015,02,18,07,19,4.90
2015,02,18,07,20,4.80
2015,02,18,07,21,4.80
2015,02,18,07,22,4.80
2015,02,18,07,23,4.80
2015,02,18,07,24,4.80
2015,02,18,07,25,4.80
2015,02,18,07,26,4.80
2015,02,18,07,27,4.80
2015,02,18,07,28,4.70
2015,02,18,07,29,4.60
2015,02,18,07,30,4.50
2015,02,18,07,31,4.50
2015,02,18,07,32,4.50
2015,02,18,07,33,4.50
2015,02,18,07,34,4.70
2015,02,18,07,35,4.80
2015,02,18,07,36,4.80
2015,02,18,07,37,4.80
2015,02,18,07,38,4.80
2015,02,18,07,39,4.90
2015,02,18,07,40,4.90
2015,02,18,07,41,4.90
2015,02,18,07,42,4.90
2015,02,18,07,43,4.90
2015,02,18,07,44,4.90
2015,02,18,07,45,5.00
2015,02,18,07,46,5.00
2015,02,18,07,47,5.00
2015,02,18,07,48,5.00
2015,02,18,07,49,5.00
2015,02,18,07,50,5.00
2015,02,18,07,51,5.00
2015,02,18,07,52,5.00
2015,02,18,07,53,4.90
2015,02,18,07,54,4.90
2015,02,18,07,55,4.90
2015,02,18,07,56,4.80
2015,02,18,07,57,4.80
2015,02,18,07,58,4.80
2015,02,18,07,59,4.80
2015,02,18,08,00,4.80
2015,02,18,08,01,4.80
2015,02,18,08,02,4.80
2015,02,18,08,03,4.80
2015,02,18,08,04,4.80
2015,02,18,08,05,4.80
2015,02,18,08,06,4.80
2015,02,18,08,07,4.80
2015,02,18,08,08,4.90
2015,02,18,08,09,4.90
2015,02,18,08,10,5.00
2015,02,18,08,11,5.10
2015,02,18,08,12,5.10
2015,02,18,08,13,5.10
2015,02,18,08,14,5.10
2015,02,18,08,15,5.10
2015,02,18,08,16,5.10
2015,02,18,08,17,5.10
2015,02,18,08,18,5.00
2015,02,18,08,19,5.00
2015,02,18,08,20,5.10
2015,02,18,08,21,5.10
2015,02,18,08,22,5.20
2015,02,18,08,23,5.30
2015,02,18,08,24,5.30
2015,02,18,08,25,5.40
2015,02,18,08,26,5.40
2015,02,18,08,27,5.50
2015,02,18,08,28,5.40
2015,02,18,08,29,5.40
2015,02,18,08,30,5.40
2015,02,18,08,31,5.40
2015,02,18,08,32,5.40
2015,02,18,08,33,5.40
2015,02,18,08,34,5.50
2015,02,18,08,35,5.60
2015,02,18,08,36,5.70
2015,02,18,08,37,5.70
2015,02,18,08,38,5.80
2015,02,18,08,39,5.80
2015,02,18,08,40,5.80
2015,02,18,08,41,5.90
2015,02,18,08,42,5.90
2015,02,18,08,43,5.90
2015,02,18,08,44,5.90
2015,02,18,08,45,6.00
2015,02,18,08,46,6.00
2015,02,18,08,47,6.10
2015,02,18,08,48,6.10
2015,02,18,08,49,6.10
2015,02,18,08,50,6.10
2015,02,18,08,51,6.10
2015,02,18,08,52,6.10
2015,02,18,08,53,6.20
2015,02,18,08,54,6.20
2015,02,18,08,55,6.30
2015,02,18,08,56,6.30
2015,02,18,08,57,6.40
2015,02,18,08,58,6.40
2015,02,18,08,59,6.50
2015,02,18,09,00,6.50
2015,02,18,09,01,6.60
2015,02,18,09,02,6.60
2015,02,18,09,03,6.70
2015,02,18,09,04,6.80
2015,02,18,09,05,6.80
2015,02,18,09,06,6.80
2015,02,18,09,07,6.90
2015,02,18,09,08,7.00
2015,02,18,09,09,7.10
2015,02,18,09,10,7.20
2015,02,18,09,11,7.20
2015,02,18,09,12,7.30
2015,02,18,09,13,7.30
2015,02,18,09,14,7.40
2015,02,18,09,15,7.50
2015,02,18,09,16,7.50
2015,02,18,09,17,7.60
2015,02,18,09,18,7.60
2015,02,18,09,19,7.70
2015,02,18,09,20,7.70
2015,02,18,09,21,7.70
2015,02,18,09,22,7.70
2015,02,18,09,23,7.70
2015,02,18,09,24,7.70
2015,02,18,09,25,7.70
2015,02,18,09,26,7.70
2015,02,18,09,27,7.90
2015,02,18,09,28,8.00
2015,02,18,09,29,7.90
2015,02,18,09,30,7.90
2015,02,18,09,31,8.00
2015,02,18,09,32,8.00
2015,02,18,09,33,7.90
2015,02,18,09,34,7.90
2015,02,18,09,35,7.90
2015,02,18,09,36,7.90
2015,02,18,09,37,8.00
2015,02,18,09,38,8.00
2015,02,18,09,39,8.10
2015,02,18,09,40,8.10
2015,02,18,09,41,8.20
2015,02,18,09,42,8.20
2015,02,18,09,43,8.20
2015,02,18,09,44,8.20
2015,02,18,09,45,8.10
2015,02,18,09,46,8.20
2015,02,18,09,47,8.20
2015,02,18,09,48,8.20
2015,02,18,09,49,8.20
2015,02,18,09,50,8.30
2015,02,18,09,51,8.40
2015,02,18,09,52,8.40
2015,02,18,09,53,8.40
2015,02,18,09,54,8.50
2015,02,18,09,55,8.50
2015,02,18,09,56,8.50
2015,02,18,09,57,8.50
2015,02,18,09,58,8.50
2015,02,18,09,59,8.40
2015,02,18,10,00,8.40
2015,02,18,10,01,8.40
2015,02,18,10,02,8.30
2015,02,18,10,03,8.30
2015,02,18,10,04,8.20
2015,02,18,10,05,8.20
2015,02,18,10,06,8.10
2015,02,18,10,07,8.00
2015,02,18,10,08,7.90
2015,02,18,10,09,7.90
2015,02,18,10,10,7.90
2015,02,18,10,11,7.80
2015,02,18,10,12,7.80
2015,02,18,10,13,7.80
2015,02,18,10,14,8.00
2015,02,18,10,15,8.10
2015,02,18,10,16,8.10
2015,02,18,10,17,8.20
2015,02,18,10,18,8.30
2015,02,18,10,19,8.30
2015,02,18,10,20,8.30
2015,02,18,10,21,8.30
2015,02,18,10,22,8.30
2015,02,18,10,23,8.40
2015,02,18,10,24,8.40
2015,02,18,10,25,8.40
2015,02,18,10,26,8.30
2015,02,18,10,27,8.20
2015,02,18,10,28,8.10
2015,02,18,10,29,8.10
2015,02,18,10,30,8.00
2015,02,18,10,31,7.90
2015,02,18,10,32,7.90
2015,02,18,10,33,7.90
2015,02,18,10,34,7.70
2015,02,18,10,35,7.60
2015,02,18,10,36,7.60
2015,02,18,10,37,7.60
2015,02,18,10,38,7.60
2015,02,18,10,39,7.60
2015,02,18,10,40,7.60
2015,02,18,10,41,7.60
2015,02,18,10,42,7.60
2015,02,18,10,43,7.50
2015,02,18,10,44,7.40
2015,02,18,10,45,7.40
2015,02,18,10,46,7.40
2015,02,18,10,47,7.40
2015,02,18,10,48,7.40
2015,02,18,10,49,7.40
2015,02,18,10,50,7.30
2015,02,18,10,51,7.30
2015,02,18,10,52,7.30
2015,02,18,10,53,7.40
2015,02,18,10,54,7.40
2015,02,18,10,55,7.40
2015,02,18,10,56,7.50
2015,02,18,10,57,7.60
2015,02,18,10,58,7.70
2015,02,18,10,59,7.70
2015,02,18,11,00,7.80
2015,02,18,11,01,7.80
2015,02,18,11,02,8.00
2015,02,18,11,03,8.10
2015,02,18,11,04,8.20
2015,02,18,11,05,8.30
2015,02,18,11,06,8.30
2015,02,18,11,07,8.40
2015,02,18,11,08,8.50
2015,02,18,11,09,8.50
2015,02,18,11,10,8.60
2015,02,18,11,11,8.70
2015,02,18,11,12,8.70
2015,02,18,11,13,8.70
2015,02,18,11,14,8.70
2015,02,18,11,15,8.80
2015,02,18,11,16,8.80
2015,02,18,11,17,8.90
2015,02,18,11,18,9.00
2015,02,18,11,19,9.10
2015,02,18,11,20,9.10
2015,02,18,11,21,9.20
2015,02,18,11,22,9.30
2015,02,18,11,23,9.30
2015,02,18,11,24,9.30
2015,02,18,11,25,9.20
2015,02,18,11,26,9.20
2015,02,18,11,27,9.20
2015,02,18,11,28,9.10
2015,02,18,11,29,9.10
2015,02,18,11,30,9.00
2015,02,18,11,31,8.90
2015,02,18,11,32,8.90
2015,02,18,11,33,8.80
2015,02,18,11,34,8.80
2015,02,18,11,35,8.90
2015,02,18,11,36,8.90
2015,02,18,11,37,8.90
2015,02,18,11,38,9.00
2015,02,18,11,39,9.00
2015,02,18,11,40,9.00
2015,02,18,11,41,9.00
2015,02,18,11,42,9.10
2015,02,18,11,43,9.10
2015,02,18,11,44,9.10
2015,02,18,11,45,9.10
2015,02,18,11,46,9.20
2015,02,18,11,47,9.20
2015,02,18,11,48,9.20
2015,02,18,11,49,9.10
2015,02,18,11,50,9.20
2015,02,18,11,51,9.20
2015,02,18,11,52,9.20
2015,02,18,11,53,9.20
2015,02,18,11,54,9.30
2015,02,18,11,55,9.30
2015,02,18,11,56,9.30
2015,02,18,11,57,9.30
2015,02,18,11,58,9.30
2015,02,18,11,59,9.30
2015,02,18,12,00,9.30
2015,02,18,12,01,9.30
2015,02,18,12,02,9.30
2015,02,18,12,03,9.30
2015,02,18,12,04,9.30
2015,02,18,12,05,9.40
2015,02,18,12,06,9.50
2015,02,18,12,07,9.60
2015,02,18,12,08,9.70
2015,02,18,12,09,9.80
2015,02,18,12,10,9.90
2015,02,18,12,11,10.00
2015,02,18,12,12,10.10
2015,02,18,12,13,10.20
2015,02,18,12,14,10.20
2015,02,18,12,15,10.20
2015,02,18,12,16,10.20
2015,02,18,12,17,10.20
2015,02,18,12,18,10.10
2015,02,18,12,19,10.10
2015,02,18,12,20,10.10
2015,02,18,12,21,10.10
2015,02,18,12,22,10.10
2015,02,18,12,23,10.10
2015,02,18,12,24,10.00
2015,02,18,12,25,10.00
2015,02,18,12,26,10.00
2015,02,18,12,27,10.00
2015,02,18,12,28,9.90
2015,02,18,12,29,10.00
2015,02,18,12,30,10.00
2015,02,18,12,31,10.00
2015,02,18,12,32,10.00
2015,02,18,12,33,10.10
2015,02,18,12,34,10.10
2015,02,18,12,35,10.20
2015,02,18,12,36,10.20
2015,02,18,12,37,10.20
2015,02,18,12,38,10.30
2015,02,18,12,39,10.30
2015,02,18,12,40,10.30
2015,02,18,12,41,10.40
2015,02,18,12,42,10.50
2015,02,18,12,43,10.50
2015,02,18,12,44,10.40
2015,02,18,12,45,10.50
2015,02,18,12,46,10.50
2015,02,18,12,47,10.40
2015,02,18,12,48,10.40
2015,02,18,12,49,10.40
2015,02,18,12,50,10.50
2015,02,18,12,51,10.60
2015,02,18,12,52,10.70
2015,02,18,12,53,10.70
2015,02,18,12,54,10.80
2015,02,18,12,55,10.80
2015,02,18,12,56,10.80
2015,02,18,12,57,10.80
2015,02,18,12,58,10.80
2015,02,18,12,59,10.80
2015,02,18,13,00,10.80
2015,02,18,13,01,10.70
2015,02,18,13,02,10.70
2015,02,18,13,03,10.70
2015,02,18,13,04,10.80
2015,02,18,13,05,10.80
2015,02,18,13,06,10.70
2015,02,18,13,07,10.70
2015,02,18,13,08,10.60
2015,02,18,13,09,10.60
2015,02,18,13,10,10.60
2015,02,18,13,11,10.60
2015,02,18,13,12,10.60
2015,02,18,13,13,10.60
2015,02,18,13,14,10.60
2015,02,18,13,15,10.60
2015,02,18,13,16,10.60
2015,02,18,13,17,10.60
2015,02,18,13,18,10.60
2015,02,18,13,19,10.60
2015,02,18,13,20,10.70
2015,02,18,13,21,10.70
2015,02,18,13,22,10.70
2015,02,18,13,23,10.80
2015,02,18,13,24,10.80
2015,02,18,13,25,10.80
2015,02,18,13,26,10.80
2015,02,18,13,27,10.70
2015,02,18,13,28,10.70
2015,02,18,13,29,10.60
2015,02,18,13,30,10.60
2015,02,18,13,31,10.50
2015,02,18,13,32,10.50
2015,02,18,13,33,10.50
2015,02,18,13,34,10.60
2015,02,18,13,35,10.60
2015,02,18,13,36,10.60
2015,02,18,13,37,10.60
2015,02,18,13,38,10.50
2015,02,18,13,39,10.50
2015,02,18,13,40,10.60
2015,02,18,13,41,10.60
2015,02,18,13,42,10.60
2015,02,18,13,43,10.60
2015,02,18,13,44,10.60
2015,02,18,13,45,10.70
2015,02,18,13,46,10.80
2015,02,18,13,47,10.80
2015,02,18,13,48,10.80
2015,02,18,13,49,10.90
2015,02,18,13,50,11.00
2015,02,18,13,51,11.10
2015,02,18,13,52,11.00
2015,02,18,13,53,11.10
2015,02,18,13,54,11.20
2015,02,18,13,55,11.20
2015,02,18,13,56,11.30
2015,02,18,13,57,11.30
2015,02,18,13,58,11.30
2015,02,18,13,59,11.20
2015,02,18,14,00,11.20
2015,02,18,14,01,11.10
2015,02,18,14,02,11.00
2015,02,18,14,03,11.00
2015,02,18,14,04,10.90
2015,02,18,14,05,10.80
2015,02,18,14,06,10.80
2015,02,18,14,07,10.80
2015,02,18,14,08,10.70
2015,02,18,14,09,10.60
2015,02,18,14,10,10.60
2015,02,18,14,11,10.70
2015,02,18,14,12,10.70
2015,02,18,14,13,10.80
2015,02,18,14,14,10.80
2015,02,18,14,15,10.80
2015,02,18,14,16,10.80
2015,02,18,14,17,10.80
2015,02,18,14,18,10.80
2015,02,18,14,19,10.80
2015,02,18,14,20,10.80
2015,02,18,14,21,10.80
2015,02,18,14,22,10.70
2015,02,18,14,23,10.60
2015,02,18,14,24,10.60
2015,02,18,14,25,10.60
2015,02,18,14,26,10.60
2015,02,18,14,27,10.70
2015,02,18,14,28,10.70
2015,02,18,14,29,10.80
2015,02,18,14,30,10.80
2015,02,18,14,31,10.80
2015,02,18,14,32,10.70
2015,02,18,14,33,10.70
2015,02,18,14,34,10.60
2015,02,18,14,35,10.60
2015,02,18,14,36,10.70
2015,02,18,14,37,10.70
2015,02,18,14,38,10.70
2015,02,18,14,39,10.80
2015,02,18,14,40,10.80
2015,02,18,14,41,10.80
2015,02,18,14,42,10.80
2015,02,18,14,43,10.80
2015,02,18,14,44,10.70
2015,02,18,14,45,10.70
2015,02,18,14,46,10.70
2015,02,18,14,47,10.70
2015,02,18,14,48,10.70
2015,02,18,14,49,10.70
2015,02,18,14,50,10.70
2015,02,18,14,51,10.70
2015,02,18,14,52,10.70
2015,02,18,14,53,10.70
2015,02,18,14,54,10.70
2015,02,18,14,55,10.70
2015,02,18,14,56,10.70
2015,02,18,14,57,10.70
2015,02,18,14,58,10.80
2015,02,18,14,59,10.80
2015,02,18,15,00,10.80
2015,02,18,15,01,10.80
2015,02,18,15,02,10.80
2015,02,18,15,03,10.80
2015,02,18,15,04,10.80
2015,02,18,15,05,10.80
2015,02,18,15,06,10.80
2015,02,18,15,07,10.80
2015,02,18,15,08,10.80
2015,02,18,15,09,10.70
2015,02,18,15,10,10.70
2015,02,18,15,11,10.70
2015,02,18,15,12,10.70
2015,02,18,15,13,10.70
2015,02,18,15,14,10.80
2015,02,18,15,15,10.80
2015,02,18,15,16,10.80
2015,02,18,15,17,10.80
2015,02,18,15,18,10.80
2015,02,18,15,19,10.90
2015,02,18,15,20,10.90
2015,02,18,15,21,10.90
2015,02,18,15,22,10.90
2015,02,18,15,23,11.00
2015,02,18,15,24,11.00
2015,02,18,15,25,11.00
2015,02,18,15,26,11.10
2015,02,18,15,27,11.10
2015,02,18,15,28,11.00
2015,02,18,15,29,11.10
2015,02,18,15,30,11.10
2015,02,18,15,31,11.10
2015,02,18,15,32,11.10
2015,02,18,15,33,11.10
2015,02,18,15,34,11.10
2015,02,18,15,35,11.10
2015,02,18,15,36,11.10
2015,02,18,15,37,11.20
2015,02,18,15,38,11.20
2015,02,18,15,39,11.20
2015,02,18,15,40,11.10
2015,02,18,15,41,11.20
2015,02,18,15,42,11.20
2015,02,18,15,43,11.20
2015,02,18,15,44,11.20
2015,02,18,15,45,11.20
2015,02,18,15,46,11.20
2015,02,18,15,47,11.30
2015,02,18,15,48,11.30
2015,02,18,15,49,11.30
2015,02,18,15,50,11.40
2015,02,18,15,51,11.40
2015,02,18,15,52,11.50
2015,02,18,15,53,11.60
2015,02,18,15,54,11.60
2015,02,18,15,55,11.60
2015,02,18,15,56,11.60
2015,02,18,15,57,11.70
2015,02,18,15,58,11.70
2015,02,18,15,59,11.60
2015,02,18,16,00,11.60
2015,02,18,16,01,11.60
2015,02,18,16,02,11.50
2015,02,18,16,03,11.50
2015,02,18,16,04,11.40
2015,02,18,16,05,11.40
2015,02,18,16,06,11.30
2015,02,18,16,07,11.30
2015,02,18,16,08,11.20
2015,02,18,16,09,11.20
2015,02,18,16,10,11.20
2015,02,18,16,11,11.20
2015,02,18,16,12,11.10
2015,02,18,16,13,11.20
2015,02,18,16,14,11.10
2015,02,18,16,15,11.10
2015,02,18,16,16,11.10
2015,02,18,16,17,11.10
2015,02,18,16,18,11.10
2015,02,18,16,19,11.10
2015,02,18,16,20,11.10
2015,02,18,16,21,11.10
2015,02,18,16,22,11.10
2015,02,18,16,23,11.10
2015,02,18,16,24,11.10
2015,02,18,16,25,11.10
2015,02,18,16,26,11.10
2015,02,18,16,27,11.10
2015,02,18,16,28,11.10
2015,02,18,16,29,11.10
2015,02,18,16,30,11.10
2015,02,18,16,31,11.10
2015,02,18,16,32,11.10
2015,02,18,16,33,11.10
2015,02,18,16,34,11.10
2015,02,18,16,35,11.10
2015,02,18,16,36,11.10
2015,02,18,16,37,11.10
2015,02,18,16,38,11.10
2015,02,18,16,39,11.10
2015,02,18,16,40,11.10
2015,02,18,16,41,11.10
2015,02,18,16,42,11.10
2015,02,18,16,43,11.10
2015,02,18,16,44,11.10
2015,02,18,16,45,11.10
2015,02,18,16,46,11.10
2015,02,18,16,47,11.10
2015,02,18,16,48,11.10
2015,02,18,16,49,11.10
2015,02,18,16,50,11.10
2015,02,18,16,51,11.10
2015,02,18,16,52,11.10
2015,02,18,16,53,11.10
2015,02,18,16,54,11.10
2015,02,18,16,55,11.10
2015,02,18,16,56,11.10
2015,02,18,16,57,11.10
2015,02,18,16,58,11.10
2015,02,18,16,59,11.10
2015,02,18,17,00,11.10
2015,02,18,17,01,11.10
2015,02,18,17,02,11.10
2015,02,18,17,03,11.10
2015,02,18,17,04,11.10
2015,02,18,17,05,11.10
2015,02,18,17,06,11.10
2015,02,18,17,07,11.10
2015,02,18,17,08,11.10
2015,02,18,17,09,11.00
2015,02,18,17,10,11.00
2015,02,18,17,11,10.90
2015,02,18,17,12,10.90
2015,02,18,17,13,10.90
2015,02,18,17,14,10.90
2015,02,18,17,15,10.90
2015,02,18,17,16,10.90
2015,02,18,17,17,10.90
2015,02,18,17,18,10.90
2015,02,18,17,19,10.90
2015,02,18,17,20,10.80
2015,02,18,17,21,10.80
2015,02,18,17,22,10.80
2015,02,18,17,23,10.80
2015,02,18,17,24,10.80
2015,02,18,17,25,10.80
2015,02,18,17,26,10.80
2015,02,18,17,27,10.80
2015,02,18,17,28,10.70
2015,02,18,17,29,10.70
2015,02,18,17,30,10.70
2015,02,18,17,31,10.70
2015,02,18,17,32,10.60
2015,02,18,17,33,10.60
2015,02,18,17,34,10.60
2015,02,18,17,35,10.60
2015,02,18,17,36,10.60
2015,02,18,17,37,10.60
2015,02,18,17,38,10.60
2015,02,18,17,39,10.60
2015,02,18,17,40,10.60
2015,02,18,17,41,10.60
2015,02,18,17,42,10.60
2015,02,18,17,43,10.50
2015,02,18,17,44,10.50
2015,02,18,17,45,10.50
2015,02,18,17,46,10.50
2015,02,18,17,47,10.50
2015,02,18,17,48,10.50
2015,02,18,17,49,10.50
2015,02,18,17,50,10.50
2015,02,18,17,51,10.50